FW6463 Weather Reports


time (UTC)temp
C
wind
direction
speed
KPH
gust
KPH
rain 1hr
cm
rain 24hr
cm
rain mn
cm
humidity
%
barometer
mb
20260510045527 7 0.0 0.0 0.00 0.48 0.00 99 1014.0
20260510044532 7 0.0 0.0 0.00 0.48 0.00 99 1014.0
20260510043519 7 264 1.6 4.8 0.00 0.48 0.00 99 1013.7
20260510042545 7 0.0 0.0 0.00 0.48 0.00 99 1013.7
20260510041529 7 0.0 0.0 0.00 0.48 0.00 99 1013.7
20260510040515 7 0.0 0.0 0.00 0.48 0.00 99 1013.6
20260510035520 8 0.0 0.0 0.00 0.48 0.48 99 1013.5
20260510034525 8 0.0 0.0 0.00 0.48 0.48 99 1013.5
20260510033529 8 0.0 0.0 0.00 0.48 0.48 99 1013.5
20260510032516 8 0.0 0.0 0.00 0.48 0.48 99 1013.7
20260510031521 8 0.0 0.0 0.00 0.48 0.48 99 1013.7
20260510030526 8 0.0 0.0 0.00 0.48 0.48 99 1013.7
20260510025545 8 0.0 0.0 0.00 0.48 0.48 99 1013.7
20260510024517 8 0.0 0.0 0.00 0.48 0.48 99 1013.7
20260510023521 9 166 1.6 3.2 0.00 0.48 0.48 99 1013.7
20260510022520 9 146 1.6 3.2 0.00 0.48 0.48 99 1013.7
20260510021519 9 169 1.6 3.2 0.00 0.48 0.48 99 1013.6
20260510020539 9 0.0 1.6 0.00 0.48 0.48 99 1013.5
20260510015537 10 0.0 0.0 0.00 0.48 0.48 99 1013.5
20260510014517 10 0.0 0.0 0.00 0.48 0.48 99 1013.2
20260510013532 10 180 0.0 1.6 0.00 0.48 0.48 99 1013.0
20260510012540 10 170 1.6 4.8 0.00 0.48 0.48 99 1013.0
20260510011524 10 0.0 0.0 0.00 0.48 0.48 99 1012.8
20260510010529 11 0.0 0.0 0.00 0.48 0.48 99 1012.7
20260510005515 11 0.0 0.0 0.00 0.48 0.48 99 1012.5
20260510004540 12 0.0 0.0 0.00 0.48 0.48 99 1012.4
20260510003525 12 0.0 0.0 0.00 0.48 0.48 99 1012.4
20260510002530 13 0.0 0.0 0.00 0.48 0.48 96 1012.3
20260510001536 14 0.0 0.0 0.00 0.48 0.48 93 1012.3
20260510000521 15 0.0 0.0 0.00 0.48 0.48 92 1012.3
20260509235527 16 0.0 0.0 0.00 0.48 0.48 89 1012.2
20260509234531 17 0.0 0.0 0.00 0.48 0.48 87 1011.9
20260509233517 18 0.0 0.0 0.00 0.48 0.48 83 1012.0
20260509232543 19 0.0 0.0 0.00 0.48 0.48 80 1012.1
20260509231546 20 270 0.0 1.6 0.00 0.48 0.48 74 1012.2
20260509230531 21 317 1.6 4.8 0.00 0.48 0.48 72 1012.2
20260509225519 21 340 1.6 4.8 0.00 0.48 0.48 70 1012.1
20260509224523 22 312 3.2 4.8 0.00 0.48 0.48 70 1012.1
20260509223548 21 236 1.6 3.2 0.00 0.48 0.48 72 1012.0
20260509222534 21 252 3.2 4.8 0.00 0.48 0.48 70 1012.1
20260509221520 21 251 3.2 4.8 0.00 0.48 0.48 71 1012.1
20260509220524 20 229 4.8 6.4 0.00 0.48 0.48 75 1012.1
20260509215529 17 150 3.2 4.8 0.00 0.48 0.48 83 1012.3
20260509214515 17 318 3.2 4.8 0.00 0.48 0.48 81 1012.3
20260509213521 16 43 3.2 4.8 0.00 0.48 0.48 86 1012.4
20260509212526 16 82 1.6 3.2 0.00 0.48 0.48 86 1012.5
20260509211530 16 74 1.6 3.2 0.00 0.48 0.48 88 1012.6
20260509210517 15 196 1.6 4.8 0.00 0.48 0.48 88 1012.8
20260509205522 16 242 1.6 3.2 0.00 0.48 0.48 86 1013.0
20260509204526 15 259 3.2 4.8 0.00 0.48 0.48 90 1013.0
20260509203551 15 65 1.6 3.2 0.00 0.48 0.48 89 1013.0
20260509202537 15 143 1.6 4.8 0.00 0.48 0.48 90 1013.1
20260509201522 15 87 1.6 3.2 0.00 0.48 0.48 91 1013.2
20260509200527 15 330 3.2 4.8 0.00 0.48 0.48 91 1013.2
20260509195612 15 317 4.8 8.0 0.00 0.48 0.48 91 1013.3
20260509194519 15 312 6.4 9.7 0.00 0.48 0.48 88 1013.0
20260509193603 15 289 3.2 6.4 0.00 0.48 0.48 87 1012.6
20260509192528 15 11 3.2 4.8 0.00 0.48 0.48 86 1012.6
20260509191527 15 327 3.2 4.8 0.00 0.48 0.48 89 1012.8
20260509190519 15 176 1.6 3.2 0.00 0.48 0.48 84 1013.0
20260509185525 16 229 4.8 6.4 0.00 0.48 0.48 84 1013.2
20260509184544 15 189 1.6 3.2 0.00 0.48 0.48 88 1013.5
20260509183516 15 303 3.2 8.0 0.00 0.48 0.48 89 1013.7
20260509182541 15 250 4.8 9.7 0.00 0.48 0.48 88 1013.9
20260509181519 14 303 4.8 8.0 0.00 0.48 0.48 91 1013.8
20260509180518 14 258 6.4 9.7 0.00 0.48 0.48 89 1013.7
20260509175516 14 256 6.4 11.3 0.00 0.48 0.48 89 1013.7
20260509174535 14 232 3.2 6.4 0.00 0.48 0.48 90 1013.5
20260509173526 14 184 3.2 6.4 0.00 0.48 0.48 92 1014.0
20260509172532 13 222 3.2 6.4 0.00 0.48 0.48 94 1014.2
20260509171517 13 208 3.2 6.4 0.00 0.48 0.48 98 1014.4
20260509170523 13 205 3.2 6.4 0.00 0.48 0.48 98 1014.5
20260509165547 13 188 1.6 4.8 0.03 0.48 0.48 99 1014.4
20260509164532 12 201 1.6 4.8 0.03 0.48 0.48 98 1014.6
20260509163519 12 160 4.8 6.4 0.08 0.48 0.48 98 1014.2
20260509162543 12 166 4.8 6.4 0.08 0.48 0.48 99 1014.2
20260509161528 12 222 3.2 4.8 0.13 0.48 0.48 99 1014.2
20260509160535 12 169 3.2 4.8 0.18 0.48 0.48 99 1014.1
20260509155520 12 0.0 0.0 0.20 0.46 0.46 99 1014.0
20260509154524 12 128 1.6 3.2 0.20 0.46 0.46 99 1014.0
20260509153530 12 0.0 0.0 0.20 0.41 0.41 99 1014.5
20260509152537 12 180 1.6 3.2 0.25 0.41 0.41 99 1014.5
20260509151521 11 126 1.6 4.8 0.25 0.36 0.36 99 1014.6
20260509150526 11 173 4.8 8.0 0.23 0.30 0.30 99 1014.9
20260509145551 11 170 3.2 6.4 0.20 0.25 0.25 99 1015.2
20260509144017 12 208 3.2 6.4 0.20 0.23 0.23 99 1014.9
20260509143016 12 194 1.6 4.8 0.15 0.18 0.18 97 1014.7
20260509142016 12 215 1.6 3.2 0.08 0.10 0.10 96 1014.7
20260509141032 13 208 3.2 4.8 0.08 0.10 0.10 93 1014.5
20260509140040 13 252 1.6 3.2 0.03 0.05 0.05 92 1014.5
20260509135024 13 201 3.2 4.8 0.03 0.05 0.05 90 1014.5
20260509134028 13 213 1.6 4.8 0.00 0.03 0.03 89 1014.5
20260509133016 13 196 3.2 6.4 0.00 0.03 0.03 88 1014.5
20260509132020 13 182 4.8 6.4 0.03 0.03 0.03 86 1014.2
20260509131025 13 267 3.2 4.8 0.03 0.03 0.03 86 1014.5
20260509130030 13 242 3.2 4.8 0.03 0.03 0.03 91 1014.5
20260509125017 12 218 3.2 4.8 0.03 0.03 0.03 93 1014.5
20260509124021 12 216 3.2 4.8 0.03 0.03 0.03 95 1014.5
20260509123025 12 230 4.8 6.4 0.03 0.03 0.03 98 1014.5
20260509122031 11 277 3.2 4.8 0.00 0.00 0.00 99 1014.6
20260509121038 11 223 1.6 3.2 0.00 0.00 0.00 99 1014.6
20260509120022 10 315 1.6 3.2 0.00 0.00 0.00 99 1014.5
20260509115027 10 126 1.6 3.2 0.00 0.00 0.00 99 1014.6
20260509114032 10 248 0.0 3.2 0.00 0.00 0.00 99 1014.7
20260509113100 10 0.0 0.0 0.00 0.00 0.00 99 1014.6
20260509112043 10 170 1.6 3.2 0.00 0.00 0.00 99 1014.5
20260509111028 9 0.0 0.0 0.00 0.00 0.00 99 1014.4
20260509110032 9 45 0.0 1.6 0.00 0.00 0.00 99 1014.2
20260509105019 9 45 0.0 1.6 0.00 0.00 0.00 99 1014.2
20260509104025 9 176 1.6 3.2 0.00 0.00 0.00 98 1014.1
20260509103029 9 165 1.6 3.2 0.00 0.00 0.00 97 1013.7
20260509102015 9 0.0 0.0 0.00 0.00 0.00 96 1013.7
20260509101040 9 0.0 3.2 0.00 0.00 0.00 97 1013.5
20260509100026 9 48 1.6 4.8 0.00 0.00 0.00 97 1013.2
20260509095030 9 203 1.6 3.2 0.00 0.00 0.00 95 1013.4
20260509094016 9 173 3.2 3.2 0.00 0.00 0.00 95 1013.6
20260509093021 9 0.0 0.0 0.00 0.00 0.00 94 1013.7
20260509092026 9 0.0 0.0 0.00 0.00 0.00 95 1013.7
20260509091032 9 0.0 0.0 0.00 0.00 0.00 94 1013.5
20260509090019 9 0.0 0.0 0.00 0.00 0.00 94 1013.7
20260509085022 9 0.0 0.0 0.00 0.00 0.00 92 1013.7
20260509084027 9 0.0 0.0 0.00 0.00 0.00 92 1013.7
20260509083032 9 300 0.0 1.6 0.00 0.00 0.00 93 1013.7
20260509082018 9 152 1.6 3.2 0.00 0.00 0.00 92 1013.7
20260509081023 9 158 0.0 3.2 0.00 0.00 0.00 91 1013.7
20260509080028 9 0.0 0.0 0.00 0.00 0.00 92 1013.7
20260509075027 9 165 1.6 3.2 0.00 0.00 0.00 93 1013.8
20260509074021 9 0.0 0.0 0.00 0.00 0.00 93 1013.9
20260509073024 9 0.0 0.0 0.00 0.00 0.00 92 1013.9
20260509072024 9 177 1.6 3.2 0.00 0.00 0.00 91 1014.0
20260509071016 8 210 1.6 3.2 0.00 0.00 0.00 93 1014.2
20260509070022 8 0.0 0.0 0.00 0.00 0.00 95 1014.2
20260509065039 8 158 0.0 3.2 0.00 0.00 0.00 95 1014.2
20260509064018 8 248 0.0 1.6 0.00 0.00 0.00 94 1014.3
20260509063016 9 180 0.0 3.2 0.00 0.00 0.00 94 1014.4
20260509062017 9 0.0 0.0 0.00 0.00 0.00 92 1014.5
20260509061026 10 293 0.0 3.2 0.00 0.00 0.00 93 1014.7
20260509060031 10 0.0 0.0 0.00 0.00 0.00 92 1014.4
20260509055018 10 0.0 0.0 0.00 0.00 0.00 92 1014.4
20260509054022 10 180 1.6 3.2 0.00 0.00 0.00 92 1014.4
20260509053028 10 270 0.0 1.6 0.00 0.00 0.00 91 1014.4
20260509052032 10 0.0 0.0 0.00 0.00 0.00 90 1014.4
20260509051039 10 173 0.0 1.6 0.00 0.00 0.00 92 1014.6